Weather History for Pond Inlet, NU

Change the Weather History Date:

Monday, October 8, 2012

  Actual Average Record
Temperature  
Mean Temperature 16 °F -  
Max Temperature 23 °F 22 °F 33 °F (2006)
Min Temperature 8 °F 13 °F 5 °F (1996)
Degree Days  
Heating Degree Days 50    
Moisture  
Dew Point 10 °F    
Average Humidity 72    
Maximum Humidity 80    
Minimum Humidity 52    
Precipitation  
Precipitation 0.00 in - - ()
Sea Level Pressure  
Sea Level Pressure 29.84 in    
Wind  
Wind Speed 14 mph ()    
Max Wind Speed 26 mph    
Max Gust Speed 30 mph    
Visibility 9.3 miles    
Events Snow    
Averages and records for this station are not official NWS values.
T = Trace of Precipitation, MM = Missing Value Source: Averaged Metar Reports

Daily Weather History Graph

Daily Weather History Graph

Search for Another Location

Airport:

Trip Planner

Search our weather history database for the weather conditions in past years. The results will help you decide how hot, cold, wet, or windy it might be!

Date:

Astronomy

Oct. 08, 2012 Rise Set
Actual Time 8:08 AM EDT 5:48 PM EDT
Civil Twilight 6:57 AM EDT 6:58 PM EDT
Nautical Twilight 5:35 AM EDT 8:20 PM EDT
Astronomical Twilight 4:00 AM EDT 9:52 PM EDT
Moon 8:26 PM EDT (10/8) 7:03 PM EDT (10/8)
Length of Visible Light 12h 01m
Length of Day
9h 39m
Waning Gibbous, 46% of the Moon is Illuminated
Oct 8
Waning Gibbous
Oct 15
New
Oct 21
First Quarter
Oct 29
Full
Nov 6
Last Quarter

Hourly Weather History & Observations

Time (EDT) Temp. Windchill Dew Point Humidity Pressure Visibility Wind Dir Wind Speed Gust Speed Precip Events Conditions
12:00 AM 10.4 °F -4.8 °F 5.0 °F 79% 29.86 in 9.0 mi SSE 12.7 mph - N/A   Clear
1:00 AM 10.4 °F -4.8 °F 5.0 °F 79% 29.85 in 9.0 mi SE 12.7 mph - N/A   Clear
2:00 AM 13 °F - 7 °F 67% 29.84 in 9 mi SE 12.7 mph - -  
2:00 AM 12.2 °F -1.8 °F 6.8 °F 79% 29.84 in 9.0 mi SE 11.5 mph - N/A   Partly Cloudy
3:00 AM 8.6 °F -7.0 °F 3.2 °F 79% 29.83 in 9.0 mi SE 12.7 mph - N/A   Clear
4:00 AM 8.6 °F -7.7 °F 3.2 °F 79% 29.83 in 9.0 mi SSE 13.8 mph - N/A   Clear
5:00 AM 10 °F - 4 °F 67% 29.82 in 9 mi SSE 13.8 mph - -  
5:00 AM 10.4 °F -5.4 °F 5.0 °F 79% 29.82 in 9.0 mi SSE 13.8 mph - N/A   Partly Cloudy
6:00 AM 8.6 °F -7.7 °F 3.2 °F 79% 29.82 in 9.0 mi SSE 13.8 mph - N/A   Clear
7:00 AM 8.6 °F -7.7 °F 3.2 °F 79% 29.82 in 9.0 mi SE 13.8 mph - N/A   Clear
8:00 AM 11 °F - 4 °F 61% 29.81 in 9 mi SSE 13.8 mph - -  
8:00 AM 10.4 °F -5.4 °F 3.2 °F 73% 29.81 in 9.0 mi SSE 13.8 mph - N/A   Clear
9:00 AM 10.4 °F -6.6 °F 5.0 °F 79% 29.81 in 9.0 mi SSE 16.1 mph - N/A   Clear
9:35 AM 14.0 °F -2.0 °F 6.8 °F 73% 29.78 in 9.0 mi SSE 16.1 mph - N/A   Mostly Cloudy
9:58 AM 15.8 °F 0.3 °F 8.6 °F 73% 29.78 in 9.0 mi SSE 16.1 mph - N/A   Partly Cloudy
10:00 AM 15.8 °F 0.9 °F 8.6 °F 73% 29.81 in 9.0 mi SSE 15.0 mph - N/A   Partly Cloudy
10:29 AM 14.0 °F -0.2 °F 8.6 °F 79% 29.78 in 9.0 mi South 12.7 mph - N/A   Mostly Cloudy
11:00 AM 17 °F - 12 °F 74% 29.81 in 9 mi South 6.9 mph - -   Overcast
11:00 AM 17.6 °F 8.2 °F 12.2 °F 79% 29.81 in 9.0 mi South 6.9 mph - N/A   Overcast
11:07 AM 21.2 °F 8.3 °F 15.8 °F 80% 29.78 in 9.0 mi West 13.8 mph - N/A   Mostly Cloudy
11:27 AM 21.2 °F 3.9 °F 14.0 °F 74% 29.76 in 8.0 mi West 26.5 mph - N/A   Partly Cloudy
12:00 PM 21.2 °F 6.0 °F 14.0 °F 74% 29.81 in 15.0 mi West 19.6 mph - N/A   Mostly Cloudy
12:36 PM 21.2 °F 5.6 °F 14.0 °F 74% 29.78 in 9.0 mi West 20.7 mph 27.6 mph N/A   Mostly Cloudy
1:00 PM 21.2 °F 5.2 °F 12.2 °F 68% 29.81 in 15.0 mi West 21.9 mph 29.9 mph N/A Snow Low Drifting Snow
2:00 PM 22 °F - 12 °F 52% 29.82 in 9 mi West 20.7 mph - -  
2:00 PM 21.2 °F 6.0 °F 12.2 °F 68% 29.82 in 15.0 mi West 19.6 mph 25.3 mph N/A Snow Low Drifting Snow
3:00 PM 23.0 °F 7.2 °F 14.0 °F 68% 29.83 in 15.0 mi West 23.0 mph - N/A   Mostly Cloudy
4:00 PM 23.0 °F 6.9 °F 10.4 °F 59% 29.84 in 15.0 mi West 24.2 mph 29.9 mph N/A Snow Low Drifting Snow
5:00 PM 22 °F - 13 °F 57% 29.85 in 9 mi West 21.9 mph - - Snow Light Snow
5:00 PM 23.0 °F 7.2 °F 12.2 °F 63% 29.85 in 15.0 mi West 23.0 mph 28.8 mph N/A Snow Low Drifting Snow
6:00 PM 21.2 °F 7.8 °F 14.0 °F 74% 29.88 in 15.0 mi West 15.0 mph - N/A   Mostly Cloudy
6:39 PM 21.2 °F 6.0 °F 12.2 °F 68% 29.85 in 9.0 mi West 19.6 mph - N/A   Scattered Clouds
7:00 PM 21.2 °F 6.0 °F 14.0 °F 74% 29.88 in 9.0 mi West 19.6 mph - N/A   Partly Cloudy
8:00 PM 22 °F - 12 °F 54% 29.90 in 9 mi West 15.0 mph - -   Overcast
8:00 PM 21.2 °F 7.8 °F 12.2 °F 68% 29.90 in 9.0 mi WNW 15.0 mph - N/A   Overcast
9:00 PM 19.4 °F 7.9 °F 12.2 °F 74% 29.89 in 9.0 mi SSW 10.4 mph - N/A   Overcast
10:00 PM 19.4 °F 5.5 °F 10.4 °F 68% 29.89 in 9.0 mi SSW 15.0 mph - N/A   Overcast
10:36 PM 19.4 °F 4.5 °F 10.4 °F 68% 29.87 in 9.0 mi SW 17.3 mph - N/A Snow Light Snow
10:41 PM 19.4 °F 5.0 °F 10.4 °F 68% 29.87 in 7.0 mi SW 16.1 mph - N/A Snow Light Snow
10:52 PM 19.4 °F 6.0 °F 12.2 °F 74% 29.87 in 7.0 mi SW 13.8 mph - N/A   Overcast
10:59 PM 17.6 °F 3.7 °F 12.2 °F 79% 29.87 in 8.0 mi SSW 13.8 mph - N/A Snow Light Snow
11:00 PM 18 °F - 11 °F 65% 29.89 in 7 mi SSW 13.8 mph - - Snow Light Snow
11:00 PM 17.6 °F 3.7 °F 12.2 °F 79% 29.89 in 8.0 mi SSW 13.8 mph - N/A Snow Light Snow
11:02 PM 17.6 °F 4.3 °F 12.2 °F 79% 29.87 in 8.0 mi SSW 12.7 mph - N/A   Overcast
11:06 PM 19.4 °F 6.0 °F 12.2 °F 74% 29.87 in 8.0 mi SSW 13.8 mph - N/A Snow Light Snow
11:14 PM 19.4 °F 6.6 °F 12.2 °F 74% 29.87 in 9.0 mi SSW 12.7 mph - N/A   Overcast
11:24 PM 19.4 °F 6.0 °F 12.2 °F 74% 29.87 in 7.0 mi SSW 13.8 mph - N/A Snow Light Snow
11:25 PM 19.4 °F 6.6 °F 12.2 °F 74% 29.87 in 7.0 mi SSW 12.7 mph - N/A   Overcast
11:51 PM 19.4 °F 6.0 °F 14.0 °F 80% 29.87 in 7.0 mi SW 13.8 mph - N/A   Mostly Cloudy
11:57 PM 19.4 °F 6.6 °F 14.0 °F 80% 29.87 in 5.0 mi SSW 12.7 mph - N/A Snow Light Snow
11:59 PM 19.4 °F 6.6 °F 14.0 °F 80% 29.87 in 5.0 mi SSW 12.7 mph - N/A   Unknown